Year,Month,Day,Hour,Minute,Value (Times are PST for temperature in C)
2018,06,09,00,00,10.80
2018,06,09,00,01,10.80
2018,06,09,00,02,10.80
2018,06,09,00,03,10.70
2018,06,09,00,04,10.70
2018,06,09,00,05,10.70
2018,06,09,00,06,10.70
2018,06,09,00,07,10.70
2018,06,09,00,08,10.70
2018,06,09,00,09,10.70
2018,06,09,00,10,10.70
2018,06,09,00,11,10.70
2018,06,09,00,12,10.70
2018,06,09,00,13,10.70
2018,06,09,00,14,10.70
2018,06,09,00,15,10.70
2018,06,09,00,16,10.70
2018,06,09,00,17,10.70
2018,06,09,00,18,10.70
2018,06,09,00,19,10.70
2018,06,09,00,20,10.70
2018,06,09,00,21,10.70
2018,06,09,00,22,10.80
2018,06,09,00,23,10.80
2018,06,09,00,24,10.80
2018,06,09,00,25,10.80
2018,06,09,00,26,10.80
2018,06,09,00,27,10.80
2018,06,09,00,28,10.80
2018,06,09,00,29,10.70
2018,06,09,00,30,10.70
2018,06,09,00,31,10.70
2018,06,09,00,32,10.70
2018,06,09,00,33,10.70
2018,06,09,00,34,10.70
2018,06,09,00,35,10.60
2018,06,09,00,36,10.60
2018,06,09,00,37,10.60
2018,06,09,00,38,10.60
2018,06,09,00,39,10.60
2018,06,09,00,40,10.60
2018,06,09,00,41,10.60
2018,06,09,00,42,10.50
2018,06,09,00,43,10.40
2018,06,09,00,44,10.40
2018,06,09,00,45,10.40
2018,06,09,00,46,10.40
2018,06,09,00,47,10.40
2018,06,09,00,48,10.40
2018,06,09,00,49,10.40
2018,06,09,00,50,10.40
2018,06,09,00,51,10.40
2018,06,09,00,52,10.30
2018,06,09,00,53,10.30
2018,06,09,00,54,10.30
2018,06,09,00,55,10.30
2018,06,09,00,56,10.30
2018,06,09,00,57,10.30
2018,06,09,00,58,10.20
2018,06,09,00,59,10.20
2018,06,09,01,00,10.20
2018,06,09,01,01,10.20
2018,06,09,01,02,10.20
2018,06,09,01,03,10.20
2018,06,09,01,04,10.10
2018,06,09,01,05,10.10
2018,06,09,01,06,10.10
2018,06,09,01,07,10.10
2018,06,09,01,08,10.10
2018,06,09,01,09,10.10
2018,06,09,01,10,10.10
2018,06,09,01,11,10.10
2018,06,09,01,12,10.10
2018,06,09,01,13,10.10
2018,06,09,01,14,10.10
2018,06,09,01,15,10.00
2018,06,09,01,16,9.90
2018,06,09,01,17,9.90
2018,06,09,01,18,9.90
2018,06,09,01,19,9.90
2018,06,09,01,20,9.90
2018,06,09,01,21,9.90
2018,06,09,01,22,9.90
2018,06,09,01,23,9.90
2018,06,09,01,24,9.90
2018,06,09,01,25,9.90
2018,06,09,01,26,9.90
2018,06,09,01,27,9.90
2018,06,09,01,28,9.90
2018,06,09,01,29,9.90
2018,06,09,01,30,9.80
2018,06,09,01,31,9.80
2018,06,09,01,32,9.80
2018,06,09,01,33,9.80
2018,06,09,01,34,9.70
2018,06,09,01,35,9.70
2018,06,09,01,36,9.70
2018,06,09,01,37,9.70
2018,06,09,01,38,9.70
2018,06,09,01,39,9.70
2018,06,09,01,40,9.70
2018,06,09,01,41,9.70
2018,06,09,01,42,9.70
2018,06,09,01,43,9.70
2018,06,09,01,44,9.60
2018,06,09,01,45,9.60
2018,06,09,01,46,9.60
2018,06,09,01,47,9.60
2018,06,09,01,48,9.60
2018,06,09,01,49,9.60
2018,06,09,01,50,9.60
2018,06,09,01,51,9.50
2018,06,09,01,52,9.50
2018,06,09,01,53,9.50
2018,06,09,01,54,9.50
2018,06,09,01,55,9.50
2018,06,09,01,56,9.50
2018,06,09,01,57,9.40
2018,06,09,01,58,9.40
2018,06,09,01,59,9.40
2018,06,09,02,00,9.40
2018,06,09,02,01,9.40
2018,06,09,02,02,9.40
2018,06,09,02,03,9.30
2018,06,09,02,04,9.30
2018,06,09,02,05,9.30
2018,06,09,02,06,9.30
2018,06,09,02,07,9.20
2018,06,09,02,08,9.20
2018,06,09,02,09,9.20
2018,06,09,02,10,9.20
2018,06,09,02,11,9.20
2018,06,09,02,12,9.20
2018,06,09,02,13,9.10
2018,06,09,02,14,9.10
2018,06,09,02,15,9.10
2018,06,09,02,16,9.10
2018,06,09,02,17,9.10
2018,06,09,02,18,9.00
2018,06,09,02,19,9.00
2018,06,09,02,20,9.00
2018,06,09,02,21,9.00
2018,06,09,02,22,9.00
2018,06,09,02,23,9.00
2018,06,09,02,24,9.00
2018,06,09,02,25,9.00
2018,06,09,02,26,9.00
2018,06,09,02,27,9.00
2018,06,09,02,28,8.90
2018,06,09,02,29,8.90
2018,06,09,02,30,8.90
2018,06,09,02,31,8.90
2018,06,09,02,32,8.90
2018,06,09,02,33,8.90
2018,06,09,02,34,8.90
2018,06,09,02,35,8.90
2018,06,09,02,36,8.90
2018,06,09,02,37,8.90
2018,06,09,02,38,8.90
2018,06,09,02,39,8.80
2018,06,09,02,40,8.80
2018,06,09,02,41,8.80
2018,06,09,02,42,8.80
2018,06,09,02,43,8.80
2018,06,09,02,44,8.80
2018,06,09,02,45,8.80
2018,06,09,02,46,8.80
2018,06,09,02,47,8.80
2018,06,09,02,48,8.80
2018,06,09,02,49,8.80
2018,06,09,02,50,8.70
2018,06,09,02,51,8.70
2018,06,09,02,52,8.70
2018,06,09,02,53,8.70
2018,06,09,02,54,8.70
2018,06,09,02,55,8.70
2018,06,09,02,56,8.70
2018,06,09,02,57,8.70
2018,06,09,02,58,8.70
2018,06,09,02,59,8.70
2018,06,09,03,00,8.70
2018,06,09,03,01,8.70
2018,06,09,03,02,8.60
2018,06,09,03,03,8.60
2018,06,09,03,04,8.60
2018,06,09,03,05,8.60
2018,06,09,03,06,8.60
2018,06,09,03,07,8.60
2018,06,09,03,08,8.60
2018,06,09,03,09,8.60
2018,06,09,03,10,8.60
2018,06,09,03,11,8.50
2018,06,09,03,12,8.50
2018,06,09,03,13,8.50
2018,06,09,03,14,8.50
2018,06,09,03,15,8.50
2018,06,09,03,16,8.50
2018,06,09,03,17,8.50
2018,06,09,03,18,8.40
2018,06,09,03,19,8.40
2018,06,09,03,20,8.40
2018,06,09,03,21,8.40
2018,06,09,03,22,8.40
2018,06,09,03,23,8.30
2018,06,09,03,24,8.30
2018,06,09,03,25,8.30
2018,06,09,03,26,8.30
2018,06,09,03,27,8.30
2018,06,09,03,28,8.30
2018,06,09,03,29,8.30
2018,06,09,03,30,8.20
2018,06,09,03,31,8.20
2018,06,09,03,32,8.20
2018,06,09,03,33,8.20
2018,06,09,03,34,8.20
2018,06,09,03,35,8.20
2018,06,09,03,36,8.20
2018,06,09,03,37,8.10
2018,06,09,03,38,8.10
2018,06,09,03,39,8.10
2018,06,09,03,40,8.10
2018,06,09,03,41,8.10
2018,06,09,03,42,8.10
2018,06,09,03,43,8.10
2018,06,09,03,44,8.10
2018,06,09,03,45,8.10
2018,06,09,03,46,8.10
2018,06,09,03,47,8.10
2018,06,09,03,48,8.00
2018,06,09,03,49,8.00
2018,06,09,03,50,8.00
2018,06,09,03,51,8.00
2018,06,09,03,52,8.00
2018,06,09,03,53,8.00
2018,06,09,03,54,8.00
2018,06,09,03,55,8.00
2018,06,09,03,56,8.00
2018,06,09,03,57,8.00
2018,06,09,03,58,8.00
2018,06,09,03,59,7.90
2018,06,09,04,00,7.90
2018,06,09,04,01,7.90
2018,06,09,04,02,7.90
2018,06,09,04,03,7.90
2018,06,09,04,04,7.80
2018,06,09,04,05,7.80
2018,06,09,04,06,7.80
2018,06,09,04,07,7.80
2018,06,09,04,08,7.80
2018,06,09,04,09,7.80
2018,06,09,04,10,7.80
2018,06,09,04,11,7.80
2018,06,09,04,12,7.80
2018,06,09,04,13,7.80
2018,06,09,04,14,7.70
2018,06,09,04,15,7.70
2018,06,09,04,16,7.70
2018,06,09,04,17,7.70
2018,06,09,04,18,7.70
2018,06,09,04,19,7.70
2018,06,09,04,20,7.70
2018,06,09,04,21,7.60
2018,06,09,04,22,7.60
2018,06,09,04,23,7.60
2018,06,09,04,24,7.60
2018,06,09,04,25,7.60
2018,06,09,04,26,7.60
2018,06,09,04,27,7.60
2018,06,09,04,28,7.50
2018,06,09,04,29,7.50
2018,06,09,04,30,7.50
2018,06,09,04,31,7.50
2018,06,09,04,32,7.50
2018,06,09,04,33,7.50
2018,06,09,04,34,7.50
2018,06,09,04,35,7.50
2018,06,09,04,36,7.50
2018,06,09,04,37,7.50
2018,06,09,04,38,7.40
2018,06,09,04,39,7.40
2018,06,09,04,40,7.40
2018,06,09,04,41,7.40
2018,06,09,04,42,7.40
2018,06,09,04,43,7.40
2018,06,09,04,44,7.40
2018,06,09,04,45,7.40
2018,06,09,04,46,7.30
2018,06,09,04,47,7.30
2018,06,09,04,48,7.30
2018,06,09,04,49,7.30
2018,06,09,04,50,7.30
2018,06,09,04,51,7.30
2018,06,09,04,52,7.30
2018,06,09,04,53,7.30
2018,06,09,04,54,7.30
2018,06,09,04,55,7.30
2018,06,09,04,56,7.30
2018,06,09,04,57,7.30
2018,06,09,04,58,7.30
2018,06,09,04,59,7.30
2018,06,09,05,00,7.30
2018,06,09,05,01,7.40
2018,06,09,05,02,7.40
2018,06,09,05,03,7.40
2018,06,09,05,04,7.50
2018,06,09,05,05,7.50
2018,06,09,05,06,7.50
2018,06,09,05,07,7.50
2018,06,09,05,08,7.60
2018,06,09,05,09,7.60
2018,06,09,05,10,7.60
2018,06,09,05,11,7.60
2018,06,09,05,12,7.60
2018,06,09,05,13,7.60
2018,06,09,05,14,7.60
2018,06,09,05,15,7.60
2018,06,09,05,16,7.60
2018,06,09,05,17,7.70
2018,06,09,05,18,7.70
2018,06,09,05,19,7.70
2018,06,09,05,20,7.70
2018,06,09,05,21,7.70
2018,06,09,05,22,7.70
2018,06,09,05,23,7.70
2018,06,09,05,24,7.70
2018,06,09,05,25,7.70
2018,06,09,05,26,7.70
2018,06,09,05,27,7.70
2018,06,09,05,28,7.70
2018,06,09,05,29,7.70
2018,06,09,05,30,7.70
2018,06,09,05,31,7.60
2018,06,09,05,32,7.60
2018,06,09,05,33,7.60
2018,06,09,05,34,7.60
2018,06,09,05,35,7.60
2018,06,09,05,36,7.60
2018,06,09,05,37,7.60
2018,06,09,05,38,7.60
2018,06,09,05,39,7.60
2018,06,09,05,40,7.70
2018,06,09,05,41,7.70
2018,06,09,05,42,7.70
2018,06,09,05,43,7.70
2018,06,09,05,44,7.70
2018,06,09,05,45,7.60
2018,06,09,05,46,7.60
2018,06,09,05,47,7.60
2018,06,09,05,48,7.60
2018,06,09,05,49,7.60
2018,06,09,05,50,7.60
2018,06,09,05,51,7.60
2018,06,09,05,52,7.60
2018,06,09,05,53,7.60
2018,06,09,05,54,7.60
2018,06,09,05,55,7.60
2018,06,09,05,56,7.60
2018,06,09,05,57,7.60
2018,06,09,05,58,7.70
2018,06,09,05,59,7.70
2018,06,09,06,00,7.70
2018,06,09,06,01,7.70
2018,06,09,06,02,7.70
2018,06,09,06,03,7.80
2018,06,09,06,04,7.80
2018,06,09,06,05,7.80
2018,06,09,06,06,7.80
2018,06,09,06,07,7.80
2018,06,09,06,08,7.80
2018,06,09,06,09,7.80
2018,06,09,06,10,7.80
2018,06,09,06,11,7.80
2018,06,09,06,12,7.90
2018,06,09,06,13,7.90
2018,06,09,06,14,7.90
2018,06,09,06,15,8.00
2018,06,09,06,16,8.00
2018,06,09,06,17,8.10
2018,06,09,06,18,8.10
2018,06,09,06,19,8.20
2018,06,09,06,20,8.20
2018,06,09,06,21,8.20
2018,06,09,06,22,8.20
2018,06,09,06,23,8.30
2018,06,09,06,24,8.30
2018,06,09,06,25,8.30
2018,06,09,06,26,8.30
2018,06,09,06,27,8.40
2018,06,09,06,28,8.40
2018,06,09,06,29,8.40
2018,06,09,06,30,8.40
2018,06,09,06,31,8.50
2018,06,09,06,32,8.50
2018,06,09,06,33,8.50
2018,06,09,06,34,8.50
2018,06,09,06,35,8.60
2018,06,09,06,36,8.60
2018,06,09,06,37,8.60
2018,06,09,06,38,8.60
2018,06,09,06,39,8.70
2018,06,09,06,40,8.70
2018,06,09,06,41,8.70
2018,06,09,06,42,8.70
2018,06,09,06,43,8.70
2018,06,09,06,44,8.70
2018,06,09,06,45,8.80
2018,06,09,06,46,8.80
2018,06,09,06,47,8.80
2018,06,09,06,48,8.90
2018,06,09,06,49,8.90
2018,06,09,06,50,8.90
2018,06,09,06,51,9.00
2018,06,09,06,52,9.00
2018,06,09,06,53,9.00
2018,06,09,06,54,9.10
2018,06,09,06,55,9.10
2018,06,09,06,56,9.20
2018,06,09,06,57,9.20
2018,06,09,06,58,9.30
2018,06,09,06,59,9.40
2018,06,09,07,00,9.40
2018,06,09,07,01,9.50
2018,06,09,07,02,9.60
2018,06,09,07,03,9.60
2018,06,09,07,04,9.70
2018,06,09,07,05,9.70
2018,06,09,07,06,9.80
2018,06,09,07,07,9.80
2018,06,09,07,08,9.80
2018,06,09,07,09,9.80
2018,06,09,07,10,9.90
2018,06,09,07,11,9.90
2018,06,09,07,12,10.00
2018,06,09,07,13,10.10
2018,06,09,07,14,10.20
2018,06,09,07,15,10.30
2018,06,09,07,16,10.40
2018,06,09,07,17,10.40
2018,06,09,07,18,10.50
2018,06,09,07,19,10.60
2018,06,09,07,20,10.70
2018,06,09,07,21,10.80
2018,06,09,07,22,10.80
2018,06,09,07,23,10.90
2018,06,09,07,24,10.90
2018,06,09,07,25,10.90
2018,06,09,07,26,10.90
2018,06,09,07,27,10.90
2018,06,09,07,28,11.10
2018,06,09,07,29,11.10
2018,06,09,07,30,11.10
2018,06,09,07,31,11.10
2018,06,09,07,32,11.20
2018,06,09,07,33,11.30
2018,06,09,07,34,11.30
2018,06,09,07,35,11.40
2018,06,09,07,36,11.50
2018,06,09,07,37,11.60
2018,06,09,07,38,11.60
2018,06,09,07,39,11.60
2018,06,09,07,40,11.60
2018,06,09,07,41,11.60
2018,06,09,07,42,11.60
2018,06,09,07,43,11.70
2018,06,09,07,44,11.70
2018,06,09,07,45,11.70
2018,06,09,07,46,11.70
2018,06,09,07,47,11.80
2018,06,09,07,48,11.80
2018,06,09,07,49,11.80
2018,06,09,07,50,11.80
2018,06,09,07,51,11.80
2018,06,09,07,52,11.80
2018,06,09,07,53,11.80
2018,06,09,07,54,11.80
2018,06,09,07,55,11.80
2018,06,09,07,56,11.80
2018,06,09,07,57,11.80
2018,06,09,07,58,11.80
2018,06,09,07,59,11.90
2018,06,09,08,00,11.90
2018,06,09,08,01,11.90
2018,06,09,08,02,11.90
2018,06,09,08,03,11.90
2018,06,09,08,04,11.90
2018,06,09,08,05,11.90
2018,06,09,08,06,11.90
2018,06,09,08,07,12.00
2018,06,09,08,08,12.00
2018,06,09,08,09,12.10
2018,06,09,08,10,12.20
2018,06,09,08,11,12.30
2018,06,09,08,12,12.30
2018,06,09,08,13,12.30
2018,06,09,08,14,12.30
2018,06,09,08,15,12.30
2018,06,09,08,16,12.30
2018,06,09,08,17,12.30
2018,06,09,08,18,12.40
2018,06,09,08,19,12.50
2018,06,09,08,20,12.60
2018,06,09,08,21,12.60
2018,06,09,08,22,12.60
2018,06,09,08,23,12.60
2018,06,09,08,24,12.60
2018,06,09,08,25,12.60
2018,06,09,08,26,12.60
2018,06,09,08,27,12.60
2018,06,09,08,28,12.60
2018,06,09,08,29,12.70
2018,06,09,08,30,12.70
2018,06,09,08,31,12.70
2018,06,09,08,32,12.80
2018,06,09,08,33,12.80
2018,06,09,08,34,12.80
2018,06,09,08,35,12.80
2018,06,09,08,36,12.80
2018,06,09,08,37,12.80
2018,06,09,08,38,12.80
2018,06,09,08,39,12.90
2018,06,09,08,40,12.90
2018,06,09,08,41,12.90
2018,06,09,08,42,13.00
2018,06,09,08,43,13.00
2018,06,09,08,44,13.00
2018,06,09,08,45,13.00
2018,06,09,08,46,13.00
2018,06,09,08,47,13.00
2018,06,09,08,48,12.90
2018,06,09,08,49,12.90
2018,06,09,08,50,12.80
2018,06,09,08,51,12.80
2018,06,09,08,52,12.80
2018,06,09,08,53,12.80
2018,06,09,08,54,12.80
2018,06,09,08,55,12.80
2018,06,09,08,56,12.80
2018,06,09,08,57,12.80
2018,06,09,08,58,12.80
2018,06,09,08,59,12.80
2018,06,09,09,00,12.90
2018,06,09,09,01,12.90
2018,06,09,09,02,13.00
2018,06,09,09,03,13.10
2018,06,09,09,04,13.20
2018,06,09,09,05,13.20
2018,06,09,09,06,13.20
2018,06,09,09,07,13.30
2018,06,09,09,08,13.30
2018,06,09,09,09,13.30
2018,06,09,09,10,13.30
2018,06,09,09,11,13.40
2018,06,09,09,12,13.50
2018,06,09,09,13,13.60
2018,06,09,09,14,13.60
2018,06,09,09,15,13.70
2018,06,09,09,16,13.80
2018,06,09,09,17,13.80
2018,06,09,09,18,13.90
2018,06,09,09,19,13.90
2018,06,09,09,20,14.00
2018,06,09,09,21,14.00
2018,06,09,09,22,14.00
2018,06,09,09,23,14.00
2018,06,09,09,24,14.00
2018,06,09,09,25,14.10
2018,06,09,09,26,14.20
2018,06,09,09,27,14.20
2018,06,09,09,28,14.20
2018,06,09,09,29,14.20
2018,06,09,09,30,14.20
2018,06,09,09,31,14.20
2018,06,09,09,32,14.20
2018,06,09,09,33,14.20
2018,06,09,09,34,14.20
2018,06,09,09,35,14.20
2018,06,09,09,36,14.20
2018,06,09,09,37,14.20
2018,06,09,09,38,14.20
2018,06,09,09,39,14.20
2018,06,09,09,40,14.10
2018,06,09,09,41,14.10
2018,06,09,09,42,14.10
2018,06,09,09,43,14.10
2018,06,09,09,44,14.20
2018,06,09,09,45,14.20
2018,06,09,09,46,14.20
2018,06,09,09,47,14.20
2018,06,09,09,48,14.20
2018,06,09,09,49,14.30
2018,06,09,09,50,14.30
2018,06,09,09,51,14.40
2018,06,09,09,52,14.40
2018,06,09,09,53,14.30
2018,06,09,09,54,14.40
2018,06,09,09,55,14.50
2018,06,09,09,56,14.50
2018,06,09,09,57,14.50
2018,06,09,09,58,14.50
2018,06,09,09,59,14.50
2018,06,09,10,00,14.60
2018,06,09,10,01,14.70
2018,06,09,10,02,14.70
2018,06,09,10,03,14.80
2018,06,09,10,04,14.80
2018,06,09,10,05,14.60
2018,06,09,10,06,14.60
2018,06,09,10,07,14.50
2018,06,09,10,08,14.50
2018,06,09,10,09,14.50
2018,06,09,10,10,14.60
2018,06,09,10,11,14.60
2018,06,09,10,12,14.60
2018,06,09,10,13,14.60
2018,06,09,10,14,14.50
2018,06,09,10,15,14.50
2018,06,09,10,16,14.60
2018,06,09,10,17,14.60
2018,06,09,10,18,14.70
2018,06,09,10,19,14.70
2018,06,09,10,20,14.70
2018,06,09,10,21,14.70
2018,06,09,10,22,14.70
2018,06,09,10,23,14.80
2018,06,09,10,24,14.80
2018,06,09,10,25,14.90
2018,06,09,10,26,15.00
2018,06,09,10,27,14.90
2018,06,09,10,28,14.80
2018,06,09,10,29,14.80
2018,06,09,10,30,14.80
2018,06,09,10,31,14.80
2018,06,09,10,32,14.80
2018,06,09,10,33,14.70
2018,06,09,10,34,14.80
2018,06,09,10,35,15.00
2018,06,09,10,36,15.10
2018,06,09,10,37,15.20
2018,06,09,10,38,15.10
2018,06,09,10,39,15.10
2018,06,09,10,40,15.10
2018,06,09,10,41,15.10
2018,06,09,10,42,15.10
2018,06,09,10,43,15.10
2018,06,09,10,44,15.20
2018,06,09,10,45,15.20
2018,06,09,10,46,15.40
2018,06,09,10,47,15.50
2018,06,09,10,48,15.40
2018,06,09,10,49,15.40
2018,06,09,10,50,15.50
2018,06,09,10,51,15.60
2018,06,09,10,52,15.60
2018,06,09,10,53,15.60
2018,06,09,10,54,15.50
2018,06,09,10,55,15.50
2018,06,09,10,56,15.40
2018,06,09,10,57,15.30
2018,06,09,10,58,15.30
2018,06,09,10,59,15.20
2018,06,09,11,00,15.10
2018,06,09,11,01,15.10
2018,06,09,11,02,15.10
2018,06,09,11,03,15.10
2018,06,09,11,04,15.30
2018,06,09,11,05,15.40
2018,06,09,11,06,15.50
2018,06,09,11,07,15.70
2018,06,09,11,08,15.80
2018,06,09,11,09,16.00
2018,06,09,11,10,16.10
2018,06,09,11,11,16.20
2018,06,09,11,12,16.30
2018,06,09,11,13,16.40
2018,06,09,11,14,16.40
2018,06,09,11,15,16.40
2018,06,09,11,16,16.40
2018,06,09,11,17,16.40
2018,06,09,11,18,16.40
2018,06,09,11,19,16.40
2018,06,09,11,20,16.40
2018,06,09,11,21,16.30
2018,06,09,11,22,16.20
2018,06,09,11,23,16.10
2018,06,09,11,24,16.10
2018,06,09,11,25,15.90
2018,06,09,11,26,15.90
2018,06,09,11,27,15.90
2018,06,09,11,28,16.10
2018,06,09,11,29,16.10
2018,06,09,11,30,16.10
2018,06,09,11,31,16.20
2018,06,09,11,32,16.30
2018,06,09,11,33,16.40
2018,06,09,11,34,16.60
2018,06,09,11,35,16.70
2018,06,09,11,36,16.70
2018,06,09,11,37,16.70
2018,06,09,11,38,16.70
2018,06,09,11,39,16.70
2018,06,09,11,40,16.70
2018,06,09,11,41,16.80
2018,06,09,11,42,16.70
2018,06,09,11,43,16.70
2018,06,09,11,44,16.70
2018,06,09,11,45,16.60
2018,06,09,11,46,16.60
2018,06,09,11,47,16.60
2018,06,09,11,48,16.70
2018,06,09,11,49,16.70
2018,06,09,11,50,16.80
2018,06,09,11,51,16.80
2018,06,09,11,52,16.80
2018,06,09,11,53,16.90
2018,06,09,11,54,17.00
2018,06,09,11,55,16.90
2018,06,09,11,56,17.00
2018,06,09,11,57,17.10
2018,06,09,11,58,17.10
2018,06,09,11,59,16.90
2018,06,09,12,00,16.50
2018,06,09,12,01,16.20
2018,06,09,12,02,16.10
2018,06,09,12,03,15.90
2018,06,09,12,04,15.80
2018,06,09,12,05,15.80
2018,06,09,12,06,15.70
2018,06,09,12,07,15.70
2018,06,09,12,08,15.90
2018,06,09,12,09,16.10
2018,06,09,12,10,16.10
2018,06,09,12,11,16.20
2018,06,09,12,12,16.20
2018,06,09,12,13,16.20
2018,06,09,12,14,15.90
2018,06,09,12,15,15.70
2018,06,09,12,16,15.60
2018,06,09,12,17,15.50
2018,06,09,12,18,15.30
2018,06,09,12,19,15.00
2018,06,09,12,20,14.70
2018,06,09,12,21,14.50
2018,06,09,12,22,14.40
2018,06,09,12,23,14.50
2018,06,09,12,24,14.70
2018,06,09,12,25,14.80
2018,06,09,12,26,14.80
2018,06,09,12,27,14.90
2018,06,09,12,28,15.00
2018,06,09,12,29,15.10
2018,06,09,12,30,15.20
2018,06,09,12,31,15.30
2018,06,09,12,32,15.30
2018,06,09,12,33,15.10
2018,06,09,12,34,14.90
2018,06,09,12,35,14.90
2018,06,09,12,36,15.00
2018,06,09,12,37,15.00
2018,06,09,12,38,15.00
2018,06,09,12,39,15.00
2018,06,09,12,40,14.90
2018,06,09,12,41,14.90
2018,06,09,12,42,14.80
2018,06,09,12,43,14.80
2018,06,09,12,44,14.90
2018,06,09,12,45,15.00
2018,06,09,12,46,15.10
2018,06,09,12,47,15.30
2018,06,09,12,48,15.50
2018,06,09,12,49,15.80
2018,06,09,12,50,16.00
2018,06,09,12,51,16.10
2018,06,09,12,52,16.10
2018,06,09,12,53,16.10
2018,06,09,12,54,16.20
2018,06,09,12,55,16.40
2018,06,09,12,56,16.70
2018,06,09,12,57,16.90
2018,06,09,12,58,17.10
2018,06,09,12,59,17.10
2018,06,09,13,00,17.20
2018,06,09,13,01,17.30
2018,06,09,13,02,17.30
2018,06,09,13,03,17.40
2018,06,09,13,04,17.50
2018,06,09,13,05,17.80
2018,06,09,13,06,17.90
2018,06,09,13,07,17.80
2018,06,09,13,08,17.90
2018,06,09,13,09,17.90
2018,06,09,13,10,17.90
2018,06,09,13,11,17.80
2018,06,09,13,12,17.80
2018,06,09,13,13,17.90
2018,06,09,13,14,17.90
2018,06,09,13,15,17.90
2018,06,09,13,16,18.00
2018,06,09,13,17,18.10
2018,06,09,13,18,18.10
2018,06,09,13,19,18.20
2018,06,09,13,20,18.10
2018,06,09,13,21,18.10
2018,06,09,13,22,18.20
2018,06,09,13,23,18.20
2018,06,09,13,24,18.20
2018,06,09,13,25,18.20
2018,06,09,13,26,18.20
2018,06,09,13,27,18.20
2018,06,09,13,28,18.00
2018,06,09,13,29,17.90
2018,06,09,13,30,17.90
2018,06,09,13,31,17.90
2018,06,09,13,32,17.90
2018,06,09,13,33,18.00
2018,06,09,13,34,18.10
2018,06,09,13,35,18.20
2018,06,09,13,36,18.10
2018,06,09,13,37,18.20
2018,06,09,13,38,18.20
2018,06,09,13,39,18.30
2018,06,09,13,40,18.40
2018,06,09,13,41,18.40
2018,06,09,13,42,18.40
2018,06,09,13,43,18.40
2018,06,09,13,44,18.20
2018,06,09,13,45,18.10
2018,06,09,13,46,18.00
2018,06,09,13,47,17.90
2018,06,09,13,48,17.90
2018,06,09,13,49,17.90
2018,06,09,13,50,17.90
2018,06,09,13,51,18.10
2018,06,09,13,52,18.20
2018,06,09,13,53,18.30
2018,06,09,13,54,18.40
2018,06,09,13,55,18.50
2018,06,09,13,56,18.60
2018,06,09,13,57,18.60
2018,06,09,13,58,18.50
2018,06,09,13,59,18.40
2018,06,09,14,00,18.40
2018,06,09,14,01,18.50
2018,06,09,14,02,18.50
2018,06,09,14,03,18.50
2018,06,09,14,04,18.50
2018,06,09,14,05,18.40
2018,06,09,14,06,18.20
2018,06,09,14,07,18.00
2018,06,09,14,08,17.80
2018,06,09,14,09,17.60
2018,06,09,14,10,17.50
2018,06,09,14,11,17.30
2018,06,09,14,12,17.00
2018,06,09,14,13,16.70
2018,06,09,14,14,16.40
2018,06,09,14,15,16.20
2018,06,09,14,16,16.10
2018,06,09,14,17,16.00
2018,06,09,14,18,15.90
2018,06,09,14,19,15.90
2018,06,09,14,20,16.00
2018,06,09,14,21,16.10
2018,06,09,14,22,16.10
2018,06,09,14,23,16.10
2018,06,09,14,24,16.10
2018,06,09,14,25,16.10
2018,06,09,14,26,16.20
2018,06,09,14,27,16.30
2018,06,09,14,28,16.40
2018,06,09,14,29,16.40
2018,06,09,14,30,16.50
2018,06,09,14,31,16.60
2018,06,09,14,32,16.70
2018,06,09,14,33,16.80
2018,06,09,14,34,16.80
2018,06,09,14,35,16.90
2018,06,09,14,36,16.80
2018,06,09,14,37,16.60
2018,06,09,14,38,16.40
2018,06,09,14,39,16.40
2018,06,09,14,40,16.30
2018,06,09,14,41,16.30
2018,06,09,14,42,16.40
2018,06,09,14,43,16.60
2018,06,09,14,44,16.70
2018,06,09,14,45,16.90
2018,06,09,14,46,17.10
2018,06,09,14,47,17.20
2018,06,09,14,48,17.40
2018,06,09,14,49,17.50
2018,06,09,14,50,17.60
2018,06,09,14,51,17.70
2018,06,09,14,52,17.80
2018,06,09,14,53,17.70
2018,06,09,14,54,17.70
2018,06,09,14,55,17.70
2018,06,09,14,56,17.70
2018,06,09,14,57,17.50
2018,06,09,14,58,17.50
2018,06,09,14,59,17.50
2018,06,09,15,00,17.50
2018,06,09,15,01,17.70
2018,06,09,15,02,17.90
2018,06,09,15,03,18.00
2018,06,09,15,04,18.10
2018,06,09,15,05,18.20
2018,06,09,15,06,18.20
2018,06,09,15,07,18.10
2018,06,09,15,08,18.20
2018,06,09,15,09,18.10
2018,06,09,15,10,18.00
2018,06,09,15,11,18.00
2018,06,09,15,12,18.10
2018,06,09,15,13,18.10
2018,06,09,15,14,18.20
2018,06,09,15,15,18.20
2018,06,09,15,16,18.30
2018,06,09,15,17,18.10
2018,06,09,15,18,18.00
2018,06,09,15,19,17.90
2018,06,09,15,20,17.70
2018,06,09,15,21,17.60
2018,06,09,15,22,17.60
2018,06,09,15,23,17.70
2018,06,09,15,24,17.70
2018,06,09,15,25,17.70
2018,06,09,15,26,17.70
2018,06,09,15,27,17.50
2018,06,09,15,28,17.30
2018,06,09,15,29,17.20
2018,06,09,15,30,17.10
2018,06,09,15,31,17.00
2018,06,09,15,32,16.90
2018,06,09,15,33,16.80
2018,06,09,15,34,16.70
2018,06,09,15,35,16.70
2018,06,09,15,36,16.70
2018,06,09,15,37,16.60
2018,06,09,15,38,16.50
2018,06,09,15,39,16.40
2018,06,09,15,40,16.20
2018,06,09,15,41,16.10
2018,06,09,15,42,16.10
2018,06,09,15,43,16.10
2018,06,09,15,44,16.10
2018,06,09,15,45,16.40
2018,06,09,15,46,16.70
2018,06,09,15,47,16.90
2018,06,09,15,48,16.80
2018,06,09,15,49,16.50
2018,06,09,15,50,16.30
2018,06,09,15,51,16.20
2018,06,09,15,52,16.10
2018,06,09,15,53,16.20
2018,06,09,15,54,16.10
2018,06,09,15,55,16.00
2018,06,09,15,56,15.90
2018,06,09,15,57,15.90
2018,06,09,15,58,15.80
2018,06,09,15,59,15.80
2018,06,09,16,00,15.70
2018,06,09,16,01,15.60
2018,06,09,16,02,15.50
2018,06,09,16,03,15.30
2018,06,09,16,04,15.10
2018,06,09,16,05,14.90
2018,06,09,16,06,14.80
2018,06,09,16,07,14.80
2018,06,09,16,08,14.70
2018,06,09,16,09,14.70
2018,06,09,16,10,14.70
2018,06,09,16,11,14.60
2018,06,09,16,12,14.60
2018,06,09,16,13,14.60
2018,06,09,16,14,14.50
2018,06,09,16,15,14.50
2018,06,09,16,16,14.40
2018,06,09,16,17,14.40
2018,06,09,16,18,14.50
2018,06,09,16,19,14.60
2018,06,09,16,20,14.70
2018,06,09,16,21,14.80
2018,06,09,16,22,14.80
2018,06,09,16,23,14.80
2018,06,09,16,24,14.90
2018,06,09,16,25,15.00
2018,06,09,16,26,15.20
2018,06,09,16,27,15.30
2018,06,09,16,28,15.30
2018,06,09,16,29,15.30
2018,06,09,16,30,15.30
2018,06,09,16,31,15.30
2018,06,09,16,32,15.40
2018,06,09,16,33,15.40
2018,06,09,16,34,15.30
2018,06,09,16,35,15.10
2018,06,09,16,36,15.10
2018,06,09,16,37,15.10
2018,06,09,16,38,15.20
2018,06,09,16,39,15.30
2018,06,09,16,40,15.40
2018,06,09,16,41,15.40
2018,06,09,16,42,15.50
2018,06,09,16,43,15.50
2018,06,09,16,44,15.60
2018,06,09,16,45,15.70
2018,06,09,16,46,15.80
2018,06,09,16,47,15.70
2018,06,09,16,48,15.70
2018,06,09,16,49,15.70
2018,06,09,16,50,15.80
2018,06,09,16,51,15.60
2018,06,09,16,52,15.60
2018,06,09,16,53,15.60
2018,06,09,16,54,15.60
2018,06,09,16,55,15.50
2018,06,09,16,56,15.40
2018,06,09,16,57,15.30
2018,06,09,16,58,15.20
2018,06,09,16,59,15.10
2018,06,09,17,00,15.10
2018,06,09,17,01,15.10
2018,06,09,17,02,15.20
2018,06,09,17,03,15.30
2018,06,09,17,04,15.40
2018,06,09,17,05,15.60
2018,06,09,17,06,15.60
2018,06,09,17,07,15.60
2018,06,09,17,08,15.60
2018,06,09,17,09,15.70
2018,06,09,17,10,15.80
2018,06,09,17,11,15.80
2018,06,09,17,12,15.90
2018,06,09,17,13,15.90
2018,06,09,17,14,15.80
2018,06,09,17,15,15.80
2018,06,09,17,16,15.80
2018,06,09,17,17,15.70
2018,06,09,17,18,15.60
2018,06,09,17,19,15.70
2018,06,09,17,20,15.60
2018,06,09,17,21,15.50
2018,06,09,17,22,15.40
2018,06,09,17,23,15.30
2018,06,09,17,24,15.40
2018,06,09,17,25,15.30
2018,06,09,17,26,15.30
2018,06,09,17,27,15.30
2018,06,09,17,28,15.30
2018,06,09,17,29,15.20
2018,06,09,17,30,15.00
2018,06,09,17,31,14.90
2018,06,09,17,32,14.90
2018,06,09,17,33,14.80
2018,06,09,17,34,14.80